This is the latest recevied weather packets stored in our database for station/object N4HAC. If no packets are shown the sender has not sent any weather packets the latest 10 day(s).
| Time | Temp. | Humidity | Pressure | Rain* | Wind** | Luminosity | Snow |
|---|---|---|---|---|---|---|---|
| 1777847073 | 17.22° C | 32% | 1008.5 hPa | 0 mm | - | 77 W/m² | - |
| 1777846771 | 16.67° C | 29% | 1008.7 hPa | 0 mm | - | 93 W/m² | - |
| 1777846469 | 17.22° C | 29% | 1008.6 hPa | 0 mm | - | 86 W/m² | - |
| 1777846165 | 17.22° C | 29% | 1008.6 hPa | 0 mm | - | 90 W/m² | - |
| 1777845861 | 16.67° C | 28% | 1008.7 hPa | 0 mm | - | 94 W/m² | - |
| 1777845559 | 16.67° C | 30% | 1008.6 hPa | 0 mm | - | 99 W/m² | - |
| 1777845256 | 17.22° C | 27% | 1008.7 hPa | 0 mm | - | 103 W/m² | - |
| 1777844953 | 17.22° C | 30% | 1008.7 hPa | 0 mm | - | 108 W/m² | - |
| 1777844650 | 17.22° C | 26% | 1008.6 hPa | 0 mm | - | 113 W/m² | - |
| 1777844348 | 17.22° C | 32% | 1008.6 hPa | 0 mm | - | 118 W/m² | - |
| 1777844046 | 16.67° C | 30% | 1008.8 hPa | 0 mm | - | 124 W/m² | - |
| 1777843742 | 16.67° C | 29% | 1008.7 hPa | 0 mm | - | 131 W/m² | - |
| 1777843440 | 16.67° C | 29% | 1008.8 hPa | 0 mm | - | 139 W/m² | - |
| 1777843137 | 17.22° C | 27% | 1009.1 hPa | 0 mm | - | 146 W/m² | - |
| 1777842834 | 16.67° C | 31% | 1008.8 hPa | 0 mm | - | 156 W/m² | - |
| 1777842528 | 16.11° C | 30% | 1008.8 hPa | 0 mm | - | 121 W/m² | - |
| 1777842226 | 16.67° C | 32% | 1008.9 hPa | 0 mm | - | 178 W/m² | - |
| 1777841921 | 16.67° C | 27% | 1009.1 hPa | 0 mm | - | 194 W/m² | - |
| 1777841618 | 16.67° C | 29% | 1008.7 hPa | 0 mm | - | 213 W/m² | - |
| 1777841314 | 16.67° C | 29% | 1008.9 hPa | 0 mm | - | 233 W/m² | - |
| 1777841012 | 16.67° C | 30% | 1008.9 hPa | 0 mm | - | 252 W/m² | - |
| 1777840709 | 16.11° C | 29% | 1009.1 hPa | 0 mm | - | 271 W/m² | - |
| 1777840406 | 16.67° C | 30% | 1008.8 hPa | 0 mm | - | 291 W/m² | - |
| 1777840103 | 17.22° C | 34% | 1008.9 hPa | 0 mm | - | 311 W/m² | - |
| 1777839801 | 16.67° C | 31% | 1009.1 hPa | 0 mm | - | 334 W/m² | - |
* Rain latest hour (hover to see other rain measurements)
** Current wind speed in m/s (hover to see current wind gust speed)